Weather Roundup
Issued by NWS Chicago, IL

Home | Current Version | Previous Version | Text Only | Print | Product List | Glossary On
Versions: 1 2 3 4 5 6 7 8 9 10 11 12 13 14 15 16 17 18 19 20 21 22 23 24 25 26 27 28 29 30 31 32 33 34 35 36 37 38 39 40 41 42 43 44 45 46 47 48 49 50
000
NZUS59 KLOT 051508
HRRLOT

CHICAGO AREA WEATHER ROUNDUP
NATIONAL WEATHER SERVICE CHICAGO/ROMEOVILLE IL
1000 AM CDT THU MAY 05 2016

NOTE: "FAIR" INDICATES FEW OR NO CLOUDS BELOW 12,000 FEET WITH NO
SIGNIFICANT WEATHER AND/OR OBSTRUCTIONS TO VISIBILITY.

* THESE STATIONS ARE NOT UNDER NWS QUALITY CONTROL. THEY ALSO MAY NOT
  REPORT WEATHER SUCH AS PRECIPITATION OR FOG.

ILZ005-006-012>014-019>023-051600-
NORTHEAST ILLINOIS

CITY           SKY/WX    TMP DP  RH WIND       PRES   REMARKS
OHARE          MOSUNNY   52  39  61 N13       30.00R
MIDWAY         MOSUNNY   52  39  61 NE15      30.00R
AURORA         SUNNY     53  41  63 N12       30.01R
LANSING*       PTSUNNY   47  39  75 N13G21    30.00R
JOLIET*        SUNNY     53  41  62 N10       30.00R
WAUKEGAN       SUNNY     50  39  66 N13G20    30.01R
DUPAGE AIRPORT SUNNY     52  39  61 N12       30.00R
WHEELING       MOSUNNY   52  40  63 N12       30.02R
KANKAKEE*      SUNNY     51  40  66 N10       29.99R
MORRIS*        SUNNY     52  41  65 N7        30.00R
LEWIS AIRPORT* SUNNY     52  40  63 NE15      30.00R
$$

WIZ051-052-058>065-066-070>072-051600-
SOUTHEAST WISCONSIN

CITY           SKY/WX    TMP DP  RH WIND       PRES   REMARKS
MILWAUKEE      MOSUNNY   48  37  65 NE15      30.03R
KENOSHA*       MOSUNNY   50  39  66 N10       30.02R
RACINE*        MOSUNNY   48  37  65 N18G28    30.04R
BURLINGTON     SUNNY     49  36  61 NE9       30.02S
WEST BEND      SUNNY     50  36  57 N6        30.03S
$$

INZ001>003-010>013-019-020-051600-
NORTHWEST INDIANA

CITY           SKY/WX    TMP DP  RH WIND       PRES   REMARKS
GARY*          PTSUNNY   46  45  93 N17G29    30.01R
MICHIGAN CITY* NOT AVBL
RENSSELAER*    NOT AVBL
VALPARAISO     CLOUDY    45  40  82 N15       29.97R
$$

LMZ740>746-051600-
SOUTHERN LAKE MICHIGAN

STATION/POSITION TIME  SKY/WX   TEMP WIND        PRES    VSBY
                                AIR  DIR/SP/G
                 (UTC)          (F)  (DEG/KT/KT) (MB)    (MI)
HARRISON CRIB    1400            42  350/ 22/ 23   N/A
BURNHAM HARBOR   1500            45  360/ 16/ 19   N/A
CALUMET HARBOR   1400            43  340/ 17/ 23 1015.2R
BURNS HARBOR     1415            42  360/ 17/ 20 1015.9R
MICHIGAN CITY    1400            42  350/ 17/ 20   N/A
$$

ABBREVIATIONS USED IN REMARKS
   TC - TEMPERATURE IN CELSIUS
  WCI - WIND CHILL INDEX
   HX - HEAT INDEX
  VSB - VISIBILITY
$$



USA.gov is the U.S. government's official web portal to all federal, state and local government web resources and services.